When you browse on this site, cookies collect data to enhance your experience and personalize the content and advertising you see.
Visit our Privacy Policy to learn more. By continuing to use the site, you agree to this use of cookies and data.
  • In Romania
  • List of Countries
  • For 7 days
  • Water Temperature
  • Satellite Maps
  • Weather Map
  • Weather Widgets
  • user-avatar
    Login

    Hourly Weather Kranevo

    Today, 24 May, Friday

    Time Temperature Precipitation Wind Pressure Humidity
    00:00 +17°C° 0 mm 3 mps 752 mmHg 86%
    01:00 +15°C° 0 mm 4 mps 752 mmHg 86%
    02:00 +15°C° 0 mm 4 mps 752 mmHg 87%
    03:00 +15°C° 0 mm 4 mps 752 mmHg 86%
    04:00 +15°C° 0 mm 4 mps 752 mmHg 85%
    05:00 +15°C° 0 mm 4 mps 752 mmHg 84%
    06:00 +15°C° 0 mm 4 mps 752 mmHg 83%
    07:00 +17°C° 0 mm 4 mps 752 mmHg 81%
    08:00 +17°C° 0 mm 4 mps 752 mmHg 80%
    09:00 +19°C° 0 mm 4 mps 752 mmHg 76%
    10:00 +20°C° 0 mm 4 mps 752 mmHg 72%
    11:00 +21°C° 0 mm 3 mps 752 mmHg 68%
    12:00 +21°C° 0.5 mm 3 mps 752 mmHg 67%
    13:00 +23°C° 0.5 mm 2 mps 751 mmHg 67%
    14:00 +23°C° 0.5 mm 2 mps 751 mmHg 66%
    15:00 +23°C° 0.4 mm 2 mps 751 mmHg 68%
    16:00 +21°C° 0.4 mm 2 mps 751 mmHg 69%
    17:00 +22°C° 0.4 mm 1 mps 750 mmHg 70%
    18:00 +20°C° 0.6 mm 2 mps 750 mmHg 75%
    19:00 +19°C° 0.6 mm 2 mps 750 mmHg 80%
    20:00 +17°C° 0.6 mm 2 mps 750 mmHg 85%
    21:00 +17°C° 0.4 mm 2 mps 751 mmHg 87%
    22:00 +17°C° 0.4 mm 2 mps 751 mmHg 89%
    23:00 +16°C° 0.4 mm 2 mps 751 mmHg 90%

    Tomorrow, 25 May, Saturday

    Time Temperature Precipitation Wind Pressure Humidity
    00:00 +16°C° 0.1 mm 3 mps 751 mmHg 91%
    01:00 +16°C° 0.1 mm 3 mps 751 mmHg 92%
    02:00 +15°C° 0.1 mm 4 mps 751 mmHg 92%
    03:00 +15°C° 0.3 mm 4 mps 751 mmHg 92%
    04:00 +14°C° 0.3 mm 5 mps 751 mmHg 92%
    05:00 +14°C° 0.3 mm 5 mps 751 mmHg 91%
    06:00 +15°C° 0.1 mm 5 mps 752 mmHg 89%
    07:00 +16°C° 0.1 mm 6 mps 752 mmHg 86%
    08:00 +17°C° 0.1 mm 6 mps 752 mmHg 84%
    09:00 +19°C° 0.2 mm 6 mps 752 mmHg 80%
    10:00 +20°C° 0.2 mm 5 mps 753 mmHg 76%
    11:00 +22°C° 0.2 mm 5 mps 753 mmHg 72%
    12:00 +22°C° 1.1 mm 5 mps 753 mmHg 71%
    13:00 +22°C° 1.1 mm 4 mps 753 mmHg 71%
    14:00 +24°C° 1.1 mm 3 mps 753 mmHg 70%
    15:00 +22°C° 1.7 mm 3 mps 752 mmHg 73%
    16:00 +22°C° 1.7 mm 3 mps 752 mmHg 76%
    17:00 +21°C° 1.7 mm 3 mps 752 mmHg 79%
    18:00 +21°C° 0.1 mm 3 mps 752 mmHg 81%
    19:00 +20°C° 0.1 mm 3 mps 753 mmHg 84%
    20:00 +19°C° 0.1 mm 3 mps 753 mmHg 86%
    21:00 +18°C° 0 mm 3 mps 753 mmHg 87%
    22:00 +18°C° 0 mm 3 mps 753 mmHg 88%
    23:00 +17°C° 0 mm 3 mps 754 mmHg 89%

    Day after tomorrow, 26 May, Sunday

    Time Temperature Precipitation Wind Pressure Humidity
    00:00 +17°C° 0 mm 4 mps 754 mmHg 89%
    01:00 +17°C° 0 mm 4 mps 754 mmHg 89%
    02:00 +15°C° 0 mm 4 mps 754 mmHg 89%
    03:00 +15°C° 0.3 mm 4 mps 754 mmHg 90%
    04:00 +16°C° 0.3 mm 3 mps 754 mmHg 91%
    05:00 +16°C° 0.3 mm 3 mps 755 mmHg 91%
    06:00 +17°C° 0 mm 3 mps 755 mmHg 88%
    07:00 +19°C° 0 mm 3 mps 756 mmHg 85%
    08:00 +21°C° 0 mm 2 mps 756 mmHg 81%
    09:00 +23°C° 0 mm 2 mps 756 mmHg 76%
    10:00 +24°C° 0 mm 1 mps 756 mmHg 71%
    11:00 +25°C° 0 mm 1 mps 756 mmHg 65%
    12:00 +25°C° 0.1 mm 2 mps 756 mmHg 65%
    13:00 +26°C° 0.1 mm 3 mps 756 mmHg 66%
    14:00 +26°C° 0.1 mm 3 mps 756 mmHg 66%
    15:00 +25°C° 0.2 mm 3 mps 756 mmHg 69%
    16:00 +25°C° 0.2 mm 3 mps 756 mmHg 72%
    17:00 +24°C° 0.2 mm 3 mps 756 mmHg 76%
    18:00 +22°C° 0 mm 3 mps 756 mmHg 79%
    19:00 +20°C° 0 mm 2 mps 756 mmHg 83%
    20:00 +19°C° 0 mm 2 mps 756 mmHg 87%
    21:00 +18°C° 0 mm 2 mps 756 mmHg 86%
    22:00 +18°C° 0 mm 2 mps 757 mmHg 85%
    23:00 +19°C° 0 mm 1 mps 757 mmHg 84%

    27 May, Monday

    Time Temperature Precipitation Wind Pressure Humidity
    00:00 +19°C° 0 mm 1 mps 757 mmHg 83%
    01:00 +18°C° 0 mm 1 mps 757 mmHg 82%
    02:00 +18°C° 0 mm 1 mps 757 mmHg 82%
    03:00 +18°C° 0 mm 1 mps 756 mmHg 82%
    04:00 +18°C° 0 mm 1 mps 756 mmHg 83%
    05:00 +18°C° 0 mm 1 mps 756 mmHg 84%
    06:00 +18°C° 0 mm 2 mps 757 mmHg 80%
    07:00 +20°C° 0 mm 2 mps 757 mmHg 77%
    08:00 +23°C° 0 mm 2 mps 757 mmHg 73%
    09:00 +22°C° 0 mm 3 mps 757 mmHg 70%
    10:00 +24°C° 0 mm 3 mps 757 mmHg 67%
    11:00 +25°C° 0 mm 4 mps 757 mmHg 65%
    12:00 +25°C° 0 mm 4 mps 757 mmHg 65%
    13:00 +25°C° 0 mm 4 mps 757 mmHg 64%
    14:00 +23°C° 0 mm 5 mps 756 mmHg 64%
    15:00 +23°C° 0 mm 4 mps 756 mmHg 67%
    16:00 +22°C° 0 mm 4 mps 756 mmHg 70%
    17:00 +22°C° 0 mm 4 mps 756 mmHg 72%
    18:00 +20°C° 0 mm 3 mps 756 mmHg 78%
    19:00 +19°C° 0 mm 3 mps 756 mmHg 84%
    20:00 +17°C° 0 mm 2 mps 756 mmHg 90%
    21:00 +17°C° 0 mm 2 mps 756 mmHg 90%
    22:00 +17°C° 0 mm 2 mps 756 mmHg 91%
    23:00 +16°C° 0 mm 2 mps 756 mmHg 91%

    28 May, Tuesday

    Time Temperature Precipitation Wind Pressure Humidity
    00:00 +16°C° 0 mm 2 mps 755 mmHg 90%
    01:00 +16°C° 0 mm 2 mps 755 mmHg 89%
    02:00 +16°C° 0 mm 2 mps 755 mmHg 89%
    03:00 +16°C° 0 mm 2 mps 754 mmHg 89%
    04:00 +16°C° 0 mm 2 mps 754 mmHg 89%
    05:00 +16°C° 0 mm 2 mps 754 mmHg 89%
    06:00 +17°C° 0 mm 2 mps 754 mmHg 85%
    07:00 +19°C° 0 mm 2 mps 754 mmHg 80%
    08:00 +21°C° 0 mm 2 mps 754 mmHg 76%
    09:00 +23°C° 0 mm 2 mps 754 mmHg 71%
    10:00 +24°C° 0 mm 3 mps 754 mmHg 67%
    11:00 +25°C° 0 mm 3 mps 753 mmHg 63%
    12:00 +26°C° 0 mm 3 mps 753 mmHg 62%
    13:00 +26°C° 0 mm 3 mps 753 mmHg 61%
    14:00 +27°C° 0 mm 3 mps 752 mmHg 60%
    15:00 +26°C° 0 mm 3 mps 752 mmHg 63%
    16:00 +25°C° 0 mm 3 mps 752 mmHg 66%
    17:00 +24°C° 0 mm 3 mps 751 mmHg 68%
    18:00 +22°C° 0 mm 3 mps 751 mmHg 72%
    19:00 +20°C° 0 mm 3 mps 751 mmHg 76%
    20:00 +19°C° 0 mm 2 mps 751 mmHg 81%
    21:00 +19°C° 0 mm 2 mps 752 mmHg 81%
    22:00 +19°C° 0 mm 2 mps 752 mmHg 82%
    23:00 +19°C° 0 mm 3 mps 752 mmHg 83%

    29 May, Wednesday

    Time Temperature Precipitation Wind Pressure Humidity
    00:00 +18°C° 0 mm 3 mps 752 mmHg 83%
    01:00 +18°C° 0 mm 3 mps 752 mmHg 83%
    02:00 +18°C° 0 mm 3 mps 752 mmHg 83%
    03:00 +18°C° 0 mm 3 mps 752 mmHg 79%
    04:00 +17°C° 0 mm 3 mps 752 mmHg 74%
    05:00 +17°C° 0 mm 3 mps 752 mmHg 69%
    06:00 +18°C° 0 mm 3 mps 752 mmHg 68%
    07:00 +20°C° 0 mm 3 mps 753 mmHg 66%
    08:00 +22°C° 0 mm 3 mps 753 mmHg 64%
    09:00 +24°C° 0 mm 3 mps 753 mmHg 62%
    10:00 +26°C° 0 mm 3 mps 753 mmHg 61%
    11:00 +28°C° 0 mm 4 mps 753 mmHg 59%
    12:00 +28°C° 0 mm 3 mps 753 mmHg 57%
    13:00 +29°C° 0 mm 3 mps 753 mmHg 55%
    14:00 +30°C° 0 mm 3 mps 753 mmHg 53%
    15:00 +30°C° 0 mm 3 mps 753 mmHg 55%
    16:00 +29°C° 0 mm 3 mps 753 mmHg 57%
    17:00 +29°C° 0 mm 3 mps 753 mmHg 59%
    18:00 +27°C° 0 mm 3 mps 753 mmHg 64%
    19:00 +26°C° 0 mm 2 mps 754 mmHg 69%
    20:00 +24°C° 0 mm 2 mps 754 mmHg 74%
    21:00 +23°C° 0 mm 2 mps 754 mmHg 75%
    22:00 +23°C° 0 mm 1 mps 754 mmHg 76%
    23:00 +22°C° 0 mm 1 mps 755 mmHg 76%
    Show more